Location: Barrio Pajares
(40.5500°N, 4.1667°W)
Time: 11:02:27
(UTC+00:00)

USA 267 - Pass Details

Date: 18 April 2024
Orbit: 1100 x 1107 km, 123.0° (Epoch: 21 May)

Event Time Altitude Azimuth Distance (km) Brightness Sun altitude
Rises 19:21:09 0° 45° (NE) 3,923 5.9 -4.8°
Reaches altitude 10° 19:23:38 10° 43° (NE) 2,964 5.3 -5.2°
Maximum altitude 19:30:08 71° 322° (NW) 1,165 3.7 -6.4°
Drops below altitude 10° 19:36:38 10° 240° (WSW) 2,958 6.1 -7.5°
Sets 19:39:07 0° 238° (WSW) 3,914 6.7 -8.0°
